Retour au catalogue

COSMOS 2251 DEB

ActifLEO
NORAD 37484·DEBRIS·🇷🇺 Russia

Lancé Jun 16, 1993 depuis Plesetsk Cosmodrome

Loading…

Prochains Passages (prochaines 24 heures)

TLE

VieillissantSource: Space-Track

Époque: Sep 8, 2026, 04:29 UTC

1 37484U 93036BLM 26251.18680735  .00001426  00000-0  43052-3 0  9991
2 37484  73.8206  62.0379 0037860  45.9700  69.6394 14.42981522692642

Suivez COSMOS 2251 DEB en temps réel avec AllMySat

Download on the App Store